Regional Weather Roundup
Issued by NWS

Home | Current Version | Previous Version | Graphics & Text | Print | Product List | Glossary On
Versions: 1 2 3 4 5 6 7 8 9 10 11 12 13 14 15 16 17 18 19 20 21 22 23 24 25 26 27 28 29 30 31 32 33 34 35 36 37 38 39 40 41 42 43 44 45 46 47 48 49 50
000
ASUS43 KLMK 222302
RWRKY
KENTUCKY REGIONAL WEATHER ROUNDUP
NATIONAL WEATHER SERVICE LOUISVILLE KY
700 PM EDT WED MAR 22 2017

NOTE "FAIR" INDICATES FEW OR NO CLOUDS BELOW 12,000 FEET
WITH NO SIGNIFICANT WEATHER AND/OR OBSTRUCTIONS TO VISIBILITY.

KYZ001>023-026-027-061>063-070>075-230000-
WESTERN AND SOUTH CENTRAL KENTUCKY

CITY           SKY/WX    TMP DP  RH WIND       PRES   REMARKS
PADUCAH        SUNNY     53  21  28 NE13      30.33R
HENDERSON      SUNNY     50  18  27 NE8       30.36S
OWENSBORO      SUNNY     52  17  25 E7        30.37R
HOPKINSVILLE   SUNNY     54  19  25 NE10      30.32R
BOWLING GREEN  SUNNY     52  15  23 NE12      30.34R
GLASGOW        NOT AVBL
$$

KYZ024-025-028>034-038-045-046-053-230000-
NORTH CENTRAL KENTUCKY

CITY           SKY/WX    TMP DP  RH WIND       PRES   REMARKS
LOUISVILLE/SDF MOSUNNY   48  11  22 NE13G23   30.40R
LOUISVILLE/LOU SUNNY     47  15  27 NE10      30.41R
FORT KNOX      SUNNY     47  13  26 NE12G18   30.36R
$$

KYZ035>037-039>044-047>052-055>060-089>105-230000-
NORTHEAST KENTUCKY

CITY           SKY/WX    TMP DP  RH WIND       PRES   REMARKS
LEXINGTON      CLEAR     43  16  33 NE13      30.39R
COVINGTON      PTCLDY    40  16  37 NE12      30.43S WCI  33
FRANKFORT      CLEAR     45  14  28 NE10      30.39R
$$

KYZ054-064>069-076>088-106>120-230000-
SOUTHEAST KENTUCKY

CITY           SKY/WX    TMP DP  RH WIND       PRES   REMARKS
JACKSON        CLEAR     46  14  27 VRB3      30.35R
LONDON         CLEAR     49  11  21 N10       30.32R
SOMERSET       CLEAR     46  19  34 N8        30.35R
MIDDLESBORO    CLEAR     53  17  23 NE7       30.30R
MONTICELLO     CLEAR     49  21  33 N18       30.35R
$$





USA.gov is the U.S. government's official web portal to all federal, state and local government web resources and services.